C/2013 U2 ( Holvorcem )

Japanese version
Home page
Updated on November 13, 2016

---------------------------------------------------------------------

* Profile

Discovery Date October 23, 2013
Magnitude 18.7 mag
Discoverer Paulo Holvorcem (Tenagra III astrograph)

* Pictures

* Orbital Elements

Epoch 2014 Oct. 30.0 TT = JDT 2456960.5
T 2014 Oct. 25.86116 TT                                 MPCW
q   5.1167361            (2000.0)            P               Q
z  +0.0011164      Peri.  107.37403     -0.38133470     -0.92067810
 +/-0.0000008      Node     7.00169     +0.34188345     -0.22415591
e   0.9942875      Incl.   43.09398     +0.85889438     -0.31954024
From 376 observations 2013 Oct. 23-2016 Feb. 16, mean residual 0".4.

* Magnitudes Graph

        m1 = 7.0 + 5 log d + 10.0 log r

---------------------------------------------------------------------

The orbital elements are published on M.P.E.C. 2016-D32.
The magnitudes graphs are made with Comet for Windows.

---------------------------------------------------------------------

Copyright(C) Seiichi Yoshida (comet@aerith.net). All rights reserved.